This is the latest recevied weather packets stored in our database for station/object KB4NWJ. If no packets are shown the sender has not sent any weather packets the latest 10 day(s).
| Time | Temp. | Humidity | Pressure | Rain* | Wind** | Luminosity | Snow |
|---|---|---|---|---|---|---|---|
| 1777821361 | 17.22° C | 56% | 1022.5 hPa | 0 mm | - | 747 W/m² | - |
| 1777821057 | 17.78° C | 54% | 1022.4 hPa | 0 mm | - | 648 W/m² | - |
| 1777820754 | 17.78° C | 57% | 1022.4 hPa | 0 mm | - | 631 W/m² | - |
| 1777820450 | 16.67° C | 56% | 1022.2 hPa | 0 mm | - | 695 W/m² | - |
| 1777820148 | 16.11° C | 55% | 1022.4 hPa | 0 mm | - | 718 W/m² | - |
| 1777819845 | 16.67° C | 57% | 1022.3 hPa | 0 mm | - | 757 W/m² | - |
| 1777819542 | 16.11° C | 58% | 1022.1 hPa | 0 mm | - | 668 W/m² | - |
| 1777819240 | 16.11° C | 63% | 1022.1 hPa | 0 mm | - | 783 W/m² | - |
| 1777818936 | 15.56° C | 61% | 1022.3 hPa | 0 mm | - | 711 W/m² | - |
| 1777818632 | 15.56° C | 62% | 1022.3 hPa | 0 mm | - | 679 W/m² | - |
| 1777818331 | 15.56° C | 66% | 1022.3 hPa | 0 mm | - | 634 W/m² | - |
| 1777818026 | 15° C | 65% | 1022 hPa | 0 mm | - | 684 W/m² | - |
| 1777817723 | 15.56° C | 66% | 1022.3 hPa | 0 mm | - | 680 W/m² | - |
| 1777817421 | 13.89° C | 68% | 1022.3 hPa | 0 mm | - | 658 W/m² | - |
| 1777817117 | 15° C | 66% | 1022.3 hPa | 0 mm | - | 644 W/m² | - |
| 1777816814 | 15° C | 66% | 1021.8 hPa | 0 mm | - | 612 W/m² | - |
| 1777816512 | 15° C | 67% | 1022 hPa | 0 mm | - | 546 W/m² | - |
| 1777816208 | 14.44° C | 68% | 1022 hPa | 0 mm | - | 550 W/m² | - |
| 1777815906 | 13.89° C | 68% | 1022.1 hPa | 0 mm | - | 494 W/m² | - |
| 1777815603 | 13.89° C | 70% | 1022 hPa | 0 mm | - | 433 W/m² | - |
| 1777815300 | 12.78° C | 76% | 1022.2 hPa | 0 mm | - | 386 W/m² | - |
| 1777814996 | 13.89° C | 70% | 1022.2 hPa | 0 mm | - | 419 W/m² | - |
| 1777814693 | 13.89° C | 72% | 1022.2 hPa | 0 mm | - | 411 W/m² | - |
| 1777814390 | 13.33° C | 76% | 1022.1 hPa | 0 mm | - | 346 W/m² | - |
| 1777814087 | 12.78° C | 77% | 1022.1 hPa | 0 mm | - | 366 W/m² | - |
* Rain latest hour (hover to see other rain measurements)
** Current wind speed in m/s (hover to see current wind gust speed)